Regional Weather Roundup
Issued by NWS

Home | Current Version | Previous Version | Text Only | Print | Product List | Glossary On
Versions: 1 2 3 4 5 6 7 8 9 10 11 12 13 14 15 16 17 18 19 20 21 22 23 24 25 26 27 28 29 30 31 32 33 34 35 36 37 38 39 40 41 42 43 44 45 46 47 48 49 50
000
ASUS43 KMPX 291001
RWRMN
WEATHER ROUNDUP FOR MINNESOTA
NATIONAL WEATHER SERVICE TWIN CITIES/CHANHASSEN MN
400 AM CST MON DEC 29 2014


NOTE: "FAIR" INDICATES FEW OR NO CLOUDS BELOW 12,000 FEET WITH NO
SIGNIFICANT WEATHER AND/OR OBSTRUCTIONS TO VISIBILITY. N/A MEANS
CURRENT SKY AND/OR WEATHER CONDITIONS ARE NOT AVAILABLE.

MNZ060>063-068>070-291100-
   Twin Cities Metro

CITY           SKY/WX    TMP DP  RH WIND       PRES   REMARKS
TWIN CITIES    CLOUDY     7  -3  64 N10       30.43S WCI  -8
ST PAUL        CLOUDY     7  -2  66 N9        30.46R WCI  -7
CRYSTAL        CLOUDY     7  -2  66 N8        30.43R WCI  -6
BLAINE         CLOUDY     7   0  72 N7        30.43R WCI  -5
LAKEVILLE      MOCLDY     7  -2  66 NE7       30.42R WCI  -5
EDEN PRAIRIE   MOCLDY     7  -3  64 N7        30.42R WCI  -5
SOUTH ST PAUL  MOCLDY     8  -2  64 N6        30.44R WCI  -2
LAKE ELMO      CLOUDY     7   0  72 N5        30.43R WCI  -2
$$
MNZ001>005-007-008-013>017-022>024-027-028-291100-
   Northwest Minnesota

CITY           SKY/WX    TMP DP  RH WIND       PRES   REMARKS
BEMIDJI        PTCLDY   -13 -17  82 NW7       30.46S WCI -28
HALLOCK        MOCLDY   -15 -20  76 NW8       30.61R WCI -32
ROSEAU         PTCLDY   -15 -20  76 W6        30.54S WCI -29
WARROAD        MOCLDY   -17 -22  76 W5        30.51S WCI -29
THIEF RVR FALL PTCLDY   -13 -20  70 NW7       30.53S WCI -29
CROOKSTON      CLEAR    -11 -17  77 N9        30.60R WCI -29
FOSSTON        PTCLDY   -15 -18  84 CALM      30.51S
DETROIT LAKES    N/A     -6  -9  84 N7        30.49R WCI -20
MOORHEAD       PTCLDY    -6  -9  84 N12       30.57R WCI -24
PARK RAPIDS    CLEAR     -8 -13  78 NW5       30.44R WCI -19
MAHNOMEN       FAIR      -9 -14  80 N7        30.50S WCI -24
$$
MNZ006-009>011-018-025>026-291100-
   North Central Minnesota

CITY           SKY/WX    TMP DP  RH WIND       PRES   REMARKS
BAUDETTE       PTCLDY   -15 -21  74 NW6       30.48R WCI -29
FLAG ISLAND    PTCLDY   -18 -24  76 NW13      30.49S WCI -41
INTL FALLS     PTCLDY   -15 -21  74 W6        30.45R WCI -29
WASKISH        PTCLDY   -13 -17  84 W3        30.49R
BIG FORK       PTCLDY   -11 -17  77 CALM      30.45R
LONGVILLE      CLEAR     -8  -9  92 NW6       30.44R WCI -21
GRAND RAPIDS   CLEAR     -8 -11  84 NW9       30.41R WCI -25
CRANE LAKE     PTCLDY   -13 -17  84 CALM      30.46R
ORR            PTCLDY   -13 -18  77 NW6       30.39R WCI -27
COOK           PTCLDY   -13 -17  84 CALM      30.42R
WALKER         FAIR     -10 -14  80 NW3       30.45S
$$
MNZ012-019>021-037-291100-
   Northeast Minnesota

CITY           SKY/WX    TMP DP  RH WIND       PRES   REMARKS
DULUTH         FAIR      -6 -12  75 NW9       30.37R WCI -23
ELY            CLEAR    -15 -18  84 CALM      30.38R
HIBBING        MOCLDY    -8 -14  74 NW9       30.41R HAZE    WCI -25
EVELETH        LGT SNOW  -8 -13  77 NW6       30.41R WCI -21
DULUTH HARBOR  CLEAR      1  -8  66 CALM      30.47S
TWO HARBORS    CLEAR     -2 -11  65 NW3       30.37S
SILVER BAY     CLEAR     -6 -11  77 CALM      30.36F
GRAND MARAIS     N/A     -3 -14  59 W3        30.40R
G MARAIS ARPRT PTCLDY   -11 -20  64 NW7       30.23S WCI -26
$$
MNZ029>031-032-039>041-046>048-054>057-064-291100-
   West Central Minnesota

CITY           SKY/WX    TMP DP  RH WIND       PRES   REMARKS
FERGUS FALLS   CLEAR     -6 -11  77 N7        30.54R WCI -20
WHEATON        CLEAR     -6  -9  84 NW14      30.54R WCI -26
MORRIS         CLEAR     -2  -6  84 N14       30.46S WCI -21
ALEXANDRIA     CLEAR      1  -5  75 N13       30.43R WCI -17
ELBOW LAKE     FAIR      -3  -7  82 N9        30.47R WCI -18
WADENA         CLEAR     -6  -9  84 NW6       30.45R WCI -18
GLENWOOD       PTCLDY     1  -4  78 N7        30.44R WCI -11
APPLETON       PTCLDY     1  -6  71 N17       30.48R WCI -19
BENSON         PTCLDY     3  -2  78 N9        30.46R WCI -11
ORTONVILLE     PTCLDY    -2  -8  78 N14       30.49R WCI -21
MADISON        PTCLDY     5   0  78 N16       30.48R WCI -14
WILLMAR        FAIR       9   0  66 N8        30.44R WCI  -4
$$
MNZ033>034-036-042>043-049>051-058-059-291100-
   Central Minnesota

CITY           SKY/WX    TMP DP  RH WIND       PRES   REMARKS
ST CLOUD       PTCLDY     6  -4  63 N8        30.44R WCI  -7
SAUK CENTRE    FAIR       0  -5  78 N6        30.44R WCI -11
PAYNESVILLE    PTCLDY     1  -3  82 NW7       30.44R WCI -11
AITKIN         CLEAR      0  -8  71 CALM      30.43R
PINE RIVER     CLEAR     -6  -9  84 NW6       30.47R WCI -18
BRAINERD       CLEAR     -2  -6  83 NW6       30.45R WCI -14
STAPLES        CLEAR     -6  -9  84 NW8       30.45R WCI -21
LONG PRAIRIE   FAIR       0  -6  78 NW8       30.44R WCI -15
LITTLE FALLS   CLEAR      1  -6  71 N3        30.45S
LITCHFIELD     PTCLDY     7   1  78 N5        30.43R WCI  -2
BUFFALO        CLOUDY     6   0  73 N5        30.45R WCI  -2
MAPLE LAKE     CLOUDY     7   1  78 N7        30.44R WCI  -5
$$
MNZ037-044-045-052-053-291100-
   East Central Minnesota

CITY           SKY/WX    TMP DP  RH WIND       PRES   REMARKS
PRINCETON      PTCLDY     3  -2  78 N7        30.44R WCI  -9
MORA           CLEAR      1  -6  71 VRB6      30.45R WCI -10
CAMBRIDGE      PTCLDY     3  -6  66 N6        30.43R WCI  -8
RUSH CITY      MOCLDY     1  -4  78 N3        30.44S
MOOSE LAKE     CLEAR     -2  -8  78 N7        30.42S WCI -16
CLOQUET        CLEAR     -6 -11  77 NW8       30.40R WCI -21
MCGREGOR       CLEAR      0  -6  78 NW6       30.43S WCI -12
$$
MNZ071>073-080-081-089-090-097-098-291100-
   Southwest Minnesota

CITY           SKY/WX    TMP DP  RH WIND       PRES   REMARKS
MONTEVIDEO     PTCLDY     3   1  92 N13       30.47R WCI -14
GRANITE FALLS  PTCLDY     9   5  82 NW7       30.46R WCI  -2
CANBY          PTCLDY     3  -2  80 N14G20    30.47R WCI -15
MARSHALL       PTCLDY     5   0  78 N14       30.42R WCI -12
REDWOOD FALLS  MOCLDY    10   2  69 N3        30.43R
OLIVIA         MOCLDY     9   3  78 N6        30.43R WCI  -1
PIPESTONE      MOCLDY     7   3  85 NE13G20   30.34R WCI  -9
WINDOM         CLOUDY    10   5  79 N10       30.37R WCI  -3
WORTHINGTON    CLOUDY    12 -31  12 N14       30.35R WCI  -3
JACKSON        CLOUDY    14   9  79 N12       30.35R WCI   0
TRACY          CLOUDY     9   6  89 N9        30.41R WCI  -5
SLAYTON        CLOUDY     8   5  89 N12       30.37R FOG     WCI  -7
$$
MNZ065>067-074>077-082>085-091>093-291100-
   South Central Minnesota

CITY           SKY/WX    TMP DP  RH WIND       PRES   REMARKS
MANKATO        CLOUDY    12   0  57 N10       30.40R WCI  -1
NEW ULM        MOCLDY     9   1  72 NE8       30.42R WCI  -4
ST JAMES       CLOUDY    12   7  79 N7        30.41R WCI   2
FAIRMONT       CLOUDY    12   9  85 N8        30.36R WCI   1
GLENCOE        CLOUDY     8   3  78 CALM      30.43R
FARIBAULT      CLOUDY    10   1  67 N6        30.40R WCI   1
OWATONNA       MOCLDY    10   1  67 N7        30.37S WCI   0
ALBERT LEA     PTCLDY    12   7  79 N9        30.35R WCI   0
$$
MNZ078>079-086>088-094>096-291100-
   Southeast Minnesota

CITY           SKY/WX    TMP DP  RH WIND       PRES   REMARKS
ROCHESTER      MOCLDY    10   3  73 N8        30.35S WCI  -2
RED WING       MOCLDY     9  -2  61 CALM      30.42R
STANTON        MOCLDY     8   1  70 N5        30.41R WCI   0
DODGE CENTER   MOCLDY    10   3  72 N7        30.35R WCI   0
WINONA         CLOUDY    14  10  85 N6        30.42R WCI   5
AUSTIN         MOCLDY    12   7  79 NE8       30.35R WCI   1
PRESTON        CLOUDY    12   7  80 N8        30.34R WCI   0
$$
ABBREVIATIONS USED IN REMARKS
   TC - TEMPERATURES IN CELSIUS
  WCI - WIND CHILL INDEX
   HX - HEAT INDEX
  VSB - VISIBILITY
$$



USA.gov is the U.S. government's official web portal to all federal, state and local government web resources and services.